DNO789 LLBG-LGAV

Flight info

Callsign DNO789
Flight time N/A
Altitude 30000
Route SUVAS N128 OTHON DCT USINI UL995 VARIX
Aircraft A320/M-SDE3FGHIRWY/LB1

Departure

Time 2026-05-07 17:23
Airport Ben Gurion International Airport (LLBG)

Arrival

Time N/A
Airport Athens Eleftherios Venizelos International Airport (LGAV)
Time Latitude Longitude Altitude Speed Heading
2026-05-07 17:05 32.00296 34.87589 120 ft 0 kts
2026-05-07 17:09 32.00295 34.87589 120 ft 2 kts
2026-05-07 17:10 32.00270 34.87586 118 ft 4 kts 13°
2026-05-07 17:10 32.00245 34.87576 119 ft 4 kts 31°
2026-05-07 17:10 32.00229 34.87558 117 ft 4 kts 91°
2026-05-07 17:10 32.00229 34.87550 119 ft 0 kts 122°
2026-05-07 17:16 32.00223 34.87562 117 ft 6 kts 124°
2026-05-07 17:16 32.00196 34.87628 120 ft 10 kts 97°
2026-05-07 17:17 32.00249 34.87677 117 ft 12 kts 32°
2026-05-07 17:17 32.00340 34.87742 118 ft 17 kts 32°
2026-05-07 17:17 32.00445 34.87816 120 ft 19 kts 30°
2026-05-07 17:17 32.00554 34.87894 117 ft 5 kts 34°
2026-05-07 17:18 32.00561 34.87900 118 ft 2 kts 34°
2026-05-07 17:18 32.00579 34.87914 118 ft 4 kts 34°
2026-05-07 17:18 32.00613 34.87936 116 ft 7 kts 29°
2026-05-07 17:18 32.00663 34.87971 118 ft 10 kts 33°
2026-05-07 17:19 32.00744 34.88031 116 ft 19 kts 30°
2026-05-07 17:19 32.00866 34.88119 118 ft 21 kts 31°
2026-05-07 17:19 32.00997 34.88213 120 ft 23 kts 36°
2026-05-07 17:19 32.01139 34.88316 120 ft 25 kts 32°
2026-05-07 17:20 32.01286 34.88434 120 ft 26 kts 40°
2026-05-07 17:20 32.01410 34.88599 117 ft 28 kts 59°
2026-05-07 17:20 32.01489 34.88805 119 ft 22 kts 75°
2026-05-07 17:20 32.01519 34.88992 116 ft 24 kts 80°
2026-05-07 17:21 32.01551 34.89194 118 ft 26 kts 79°
2026-05-07 17:21 32.01584 34.89410 119 ft 28 kts 79°
2026-05-07 17:21 32.01612 34.89587 119 ft 14 kts 81°
2026-05-07 17:21 32.01650 34.89684 119 ft 6 kts 32°
2026-05-07 17:22 32.01698 34.89714 117 ft 9 kts 27°
2026-05-07 17:22 32.01763 34.89757 118 ft 12 kts 25°
2026-05-07 17:22 32.01839 34.89699 116 ft 14 kts 266°
2026-05-07 17:22 32.01819 34.89563 116 ft 30 kts 260°
2026-05-07 17:23 32.01739 34.89048 118 ft 94 kts 259°
2026-05-07 17:23 32.01593 34.88085 118 ft 143 kts 260°
2026-05-07 17:23 32.01413 34.86785 305 ft 167 kts 265°
2026-05-07 17:23 32.01194 34.85439 908 ft 168 kts 261°
2026-05-07 17:24 32.00920 34.84089 1497 ft 169 kts 261°
2026-05-07 17:24 32.00634 34.82724 1983 ft 179 kts 261°
2026-05-07 17:24 32.00321 34.81211 2248 ft 201 kts 261°
2026-05-07 17:24 32.00040 34.79505 2430 ft 223 kts 274°
2026-05-07 17:25 32.00451 34.77698 2748 ft 240 kts 303°
2026-05-07 17:25 32.01339 34.75947 3303 ft 255 kts 303°
2026-05-07 17:25 32.02255 34.74157 4131 ft 260 kts 303°
2026-05-07 17:25 32.03194 34.72315 5001 ft 264 kts 302°
2026-05-07 17:26 32.04143 34.70443 5836 ft 268 kts 301°
2026-05-07 17:26 32.05101 34.68546 6705 ft 270 kts 300°
2026-05-07 17:26 32.06067 34.66636 7531 ft 272 kts 300°
2026-05-07 17:26 32.07041 34.64714 8351 ft 274 kts 300°
2026-05-07 17:27 32.08021 34.62779 9157 ft 277 kts 299°
2026-05-07 17:27 32.09011 34.60820 9988 ft 278 kts 298°
2026-05-07 17:27 32.10017 34.58821 10441 ft 293 kts 298°
2026-05-07 17:27 32.11099 34.56672 10606 ft 316 kts 298°
2026-05-07 17:28 32.12248 34.54390 10994 ft 329 kts 299°
2026-05-07 17:28 32.13429 34.52052 11584 ft 334 kts 300°
2026-05-07 17:28 32.14620 34.49697 12123 ft 341 kts 299°
2026-05-07 17:28 32.15839 34.47286 12812 ft 344 kts 300°
2026-05-07 17:29 32.17072 34.44843 13468 ft 347 kts 300°
2026-05-07 17:29 32.18311 34.42388 14142 ft 349 kts 300°
2026-05-07 17:29 32.19556 34.39917 14768 ft 351 kts 300°
2026-05-07 17:29 32.20811 34.37424 15343 ft 353 kts 300°
2026-05-07 17:30 32.22068 34.34920 15914 ft 356 kts 301°
2026-05-07 17:30 32.23334 34.32393 16492 ft 358 kts 301°
2026-05-07 17:30 32.24591 34.29880 17086 ft 360 kts 301°
2026-05-07 17:30 32.25867 34.27323 17702 ft 362 kts 301°
2026-05-07 17:31 32.27155 34.24746 18323 ft 364 kts 301°
2026-05-07 17:31 32.28450 34.22161 18875 ft 367 kts 301°
2026-05-07 17:31 32.29759 34.19552 19434 ft 369 kts 301°
2026-05-07 17:31 32.31071 34.16937 20002 ft 371 kts 301°
2026-05-07 17:32 32.32391 34.14305 20551 ft 374 kts 301°
2026-05-07 17:32 32.33720 34.11647 21077 ft 376 kts 301°
2026-05-07 17:32 32.35054 34.08972 21606 ft 379 kts 301°
2026-05-07 17:32 32.35943 34.07189 21940 ft 381 kts 301°
2026-05-07 17:33 32.37734 34.03596 22580 ft 384 kts 301°
2026-05-07 17:33 32.39093 34.00866 23066 ft 387 kts 301°
2026-05-07 17:33 32.40461 33.98116 23536 ft 389 kts 300°
2026-05-07 17:33 32.41838 33.95346 23937 ft 392 kts 300°
2026-05-07 17:34 32.43223 33.92560 24349 ft 393 kts 301°
2026-05-07 17:34 32.44608 33.89767 24754 ft 394 kts 301°
2026-05-07 17:34 32.46001 33.86952 25141 ft 396 kts 301°
2026-05-07 17:34 32.47397 33.84128 25508 ft 398 kts 301°
2026-05-07 17:35 32.48804 33.81280 25873 ft 400 kts 301°
2026-05-07 17:35 32.50201 33.78456 26231 ft 402 kts 301°
2026-05-07 17:35 32.51620 33.75588 26598 ft 404 kts 301°
2026-05-07 17:35 32.53046 33.72705 26950 ft 406 kts 301°
2026-05-07 17:36 32.54479 33.69805 27301 ft 408 kts 301°
2026-05-07 17:36 32.55919 33.66890 27654 ft 410 kts 301°
2026-05-07 17:36 32.57362 33.63966 28020 ft 411 kts 301°
2026-05-07 17:36 32.58793 33.61066 28372 ft 413 kts 301°
2026-05-07 17:37 32.60244 33.58119 28709 ft 415 kts 302°
2026-05-07 17:37 32.61704 33.55153 29045 ft 417 kts 302°
2026-05-07 17:37 32.63165 33.52178 29402 ft 418 kts 302°
2026-05-07 17:37 32.64620 33.49206 29868 ft 417 kts 302°
2026-05-07 17:38 32.66080 33.46222 30040 ft 415 kts 302°
2026-05-07 17:38 32.67526 33.43274 30066 ft 411 kts 302°
2026-05-07 17:38 32.70370 33.37464 30065 ft 409 kts 302°
2026-05-07 17:39 32.73224 33.31633 30063 ft 408 kts 302°
2026-05-07 17:39 32.76076 33.25795 30066 ft 408 kts 302°
2026-05-07 17:40 32.78447 33.20931 30070 ft 408 kts 302°
2026-05-07 17:40 32.81753 33.14128 30068 ft 408 kts 302°
2026-05-07 17:41 32.84117 33.09267 30074 ft 408 kts 302°
2026-05-07 17:41 32.86971 33.03386 30086 ft 408 kts 302°
2026-05-07 17:42 32.89795 32.97539 30067 ft 407 kts 302°
2026-05-07 17:42 32.92604 32.91731 30073 ft 407 kts 302°
2026-05-07 17:43 32.95425 32.85884 30082 ft 407 kts 302°
2026-05-07 17:43 32.98241 32.80041 30084 ft 406 kts 302°
2026-05-07 17:44 33.01056 32.74201 30082 ft 406 kts 302°
2026-05-07 17:44 33.03864 32.68357 30073 ft 406 kts 302°
2026-05-07 17:45 33.06666 32.62523 30075 ft 406 kts 302°
2026-05-07 17:45 33.09459 32.56683 30088 ft 405 kts 303°
2026-05-07 17:46 33.12232 32.50873 30083 ft 405 kts 303°
2026-05-07 17:46 33.15021 32.45030 30075 ft 405 kts 303°
2026-05-07 17:47 33.17813 32.39178 30071 ft 405 kts 302°
2026-05-07 17:47 33.20601 32.33321 30083 ft 405 kts 302°
2026-05-07 17:48 33.23380 32.27469 30087 ft 405 kts 302°
2026-05-07 17:48 33.26137 32.21643 30088 ft 405 kts 302°
2026-05-07 17:49 33.28931 32.15744 30089 ft 405 kts 302°
2026-05-07 17:49 33.31688 32.09919 30090 ft 405 kts 302°
2026-05-07 17:50 33.34461 32.04032 30086 ft 405 kts 302°
2026-05-07 17:50 33.37228 31.98158 30087 ft 405 kts 302°
2026-05-07 17:51 33.39989 31.92287 30087 ft 405 kts 302°
2026-05-07 17:51 33.42754 31.86406 30089 ft 405 kts 302°
2026-05-07 17:52 33.45499 31.80559 30094 ft 405 kts 302°
2026-05-07 17:52 33.48533 31.74894 30082 ft 404 kts 306°
2026-05-07 17:53 33.51703 31.69330 30083 ft 404 kts 306°
2026-05-07 17:53 33.54850 31.63778 30083 ft 404 kts 306°
2026-05-07 17:54 33.58009 31.58194 30084 ft 404 kts 306°
2026-05-07 17:54 33.61174 31.52601 30086 ft 404 kts 306°
2026-05-07 17:55 33.64334 31.47011 30094 ft 405 kts 306°
2026-05-07 17:55 33.67480 31.41435 30091 ft 405 kts 306°
2026-05-07 17:56 33.70634 31.35828 30096 ft 405 kts 306°
2026-05-07 17:56 33.73800 31.30209 30098 ft 406 kts 306°
2026-05-07 17:57 33.76424 31.25543 30095 ft 406 kts 306°
2026-05-07 17:57 33.80116 31.18960 30090 ft 406 kts 305°
2026-05-07 17:58 33.83266 31.13319 30095 ft 406 kts 305°
2026-05-07 17:58 33.86416 31.07691 30095 ft 406 kts 305°
2026-05-07 17:59 33.89565 31.02051 30098 ft 406 kts 305°
2026-05-07 17:59 33.92712 30.96406 30098 ft 406 kts 305°
2026-05-07 18:00 33.95837 30.90779 30095 ft 406 kts 304°
2026-05-07 18:00 33.98981 30.85113 30098 ft 406 kts 304°
2026-05-07 18:01 34.02125 30.79448 30100 ft 406 kts 304°
2026-05-07 18:01 34.05246 30.73812 30102 ft 406 kts 304°
2026-05-07 18:02 34.09956 30.65291 30110 ft 407 kts 304°
2026-05-07 18:03 34.13103 30.59598 30114 ft 407 kts 304°
2026-05-07 18:03 34.16218 30.53936 30115 ft 407 kts 304°
2026-05-07 18:04 34.19351 30.48239 30117 ft 407 kts 304°
2026-05-07 18:04 34.22487 30.42522 30116 ft 407 kts 304°
2026-05-07 18:05 34.25597 30.36838 30110 ft 407 kts 304°
2026-05-07 18:05 34.28731 30.31124 30109 ft 407 kts 304°
2026-05-07 18:06 34.31862 30.25390 30102 ft 407 kts 303°
2026-05-07 18:06 34.34969 30.19691 30104 ft 407 kts 304°